Погода в Токмаке

Погода в Токмаке : погода сейчас, прогноз погоды и архив. Всё, что Вы хотите узнать о погоде в Токмаке!

Поиск расширенной информации на нашем сайте:

Другие новости

Новости СМИ2

Главная страница сайта

Новости сайта

02.10.2013

Напоминаем, что на нашем новом сайте вы можете получить высокодетализированные прогнозы погоды по пунктам России, СНГ и мира (включающие важные для авиации метеовеличины, такие как направление и скорость ветра, видимость, явления погоды, количество и форма облачности, нижняя и верхняя граница облачности), а также ознакомиться с разнообразными материалами по авиационной метеорологии и подборкой полезных ссылок на эту тему.

Сайт Метеоцентр.Азия посвящён разработке технологий оптимизации авиаметеорологического обслуживания, включая проектирование и перспективное создание нескольких автоматизированных авиаметеорологических систем:
- система выпуска высокодетальных прогностических карт явлений погоды для нижнего воздушного пространства по России и ближнему зарубежью;
- система верификации прогнозов TAF (выпускаемых синоптиками официальных АМСГ РФ и ближнего зарубежья) и AUTOTAF (выпускаемых сайтом Метеоцентр.Азия) - выявление ошибок, онлайн-сопоставление с фактической погодой METAR, автоматическое внесение коррективов в прогнозы при резком отклонении фактической погоды от прогноза, подсчёт оправдываемости прогнозов по элементам и в целом;
- система обработки, анализа и отображения авиаметеорологической информации для применения провайдерами метеорологической информации.


Погода в Токмаке - сегодня

Время (UTC), дата Ветер
(°,м/с) 
Видим.   Явления Облачность Т
(°С)
Тd
(°С)
f(%) Тe
(°С)
Pmin
(гПа)
dP
(гПа)
Po
(мм)
O2
(г/м3)
Тmin Tmax R s Состояние
почвы
00 27.05.17 090 (В) 20000 м    ясно 
+17.2 +7.7 54 +18  1013.8  -0.2  692  261           
03 27.05.17 090 (В) 20000 м    ясно 
+22.4 +8.8 42 +22  1012.5             
06 27.05.17 140 (ЮВ) 20000 м    1/1 1000 м 
[Cu hum]
+28.6 +10.5 32 +32  1008.5  -1.8  691  250  +15         
09 27.05.17 тихо ()   20000 м    1/1 1000 м 
[Cu med, cong]
+30.3 +10.6 30 +34  1007.2  -0.8  690  248           
12 27.05.17 тихо ()   20000 м    3/3 1000 м 
[Cu med, cong]
+29.9 +10.5 30 +33  1006.9  -0.4  690  248           
15 27.05.17 тихо ()   20000 м    9/0 верхняя 
[Ci]
+24.1 +11.8 46 +30  1009  0.4  690  253    +30.6       
18 27.05.17 070 (В) н/о    3/0 верхняя 
[Ci]
+19.7 +10.5 55 +25  1010.3  -0.1  690  257    +30.6       
21 27.05.17 070 (В) н/о    ясно 
+17.4 +8.5 56 +20  1009.2  -1.7  689  259           
00 28.05.17 090 (В) 20000 м  {ливн. осадки}  10/10 1000 м кучево-дожд. 
[Cb cap]
+17 +14 82 +27  1013.6  3.1  691  259           
03 28.05.17 090 (В) 7-18  20000 м    4/0 верхняя 
[Ci fib]
+23.2 +9.4 41 +25  1009.3  -1.4  690  254  +16.8        влажная 
06 28.05.17 230 (ЮЗ) 20000 м    3/1 1000 м верхняя 
[Cu med, cong|Ci sp]
+26.3 +11.7 40 +32  1008.6  0.4  690  251  +16.8    0.3     
09 28.05.17 230 (ЮЗ) 20000 м    10/8 1000 м кучево-дожд., средняя 
[Cb cap|Ac und]
+23.5 +10.3 43 +27  1010.7  1.1  691  254           
12 28.05.17 070 (В) 20000 м  {ливн. осадки}  6/0 верхняя 
[Ci ing]
+23.6 +9.9 42 +26  1011  0.2  691  254           
15 28.05.17 110 (В) 20000 м    3/0 средняя 
[Ac trans]
+19.7 +8.9 50 +22  1013  0.7  692  258    +27.8  0.3     
18 28.05.17 090 (В) н/о    ясно 
+17.1 +9 59 +19  1013.8  692  261    +27.8  0.3     
21 28.05.17 070 (В) н/о    ясно 
+16.1 +7.3 56 +16  1013.2  -0.9  691  262           
00 29.05.17 070 (В) 20000 м    3/0 средняя 
[Ac trans]
+14.5 +6.7 59 +16  1013.1  -0.7  690  263           
03 29.05.17 080 (В) 20000 м  гроза, пыльная буря  ясно 
+24.1 +9.7 40 +25  1008.5  -1.1  751  276           
06 29.05.17 290 (З) 1100 м    5/0 
+31.1 +9.5 26 +33  1004.2  -2  688  247  +14         
09 29.05.17 060 (СВ) 20000 м    4/3 1000 м средняя, верхняя 
[Cu med, cong|Ac lent|Ci fib]
+33.1 +9.8 24 +36  1001.7  -1.8  687  245           
12 29.05.17 090 (В) 20000 м    8/0 средняя, верхняя 
[Ac lent|Ci fib]
+31.5 +8 23 +32  1099.8  -2.4  685  246           
15 29.05.17 270 (З) 20000 м    8/3 600 м кучево-дожд., средняя 
[Cb calv|Ac cuf]
+25 +8.2 34 +25  1007.5  5.5  689  253    +33.4       
18 29.05.17 090 (В) н/о    ясно 
+20.4 +9.5 50 +23  1008.6  -0.3  689  256    +33.4       
21 29.05.17 200 (Ю) н/о  в посл. час ливневой дождь  10/10 600 м кучево-дожд. 
[Cb cap]
+16.2 +13.3 83 +26  1013.4  3.2  691  260           
00 30.05.17 140 (ЮВ) 20000 м  {ливн. осадки}  10/0 средняя 
[Ac cuf]
+15.7 +13.2 85 +25  1013.2  -0.6  691  260           
Время (UTC), дата Ветер
(°,м/с) 
Видим.   Явления Облачность Т
(°С)
Тd
(°С)
f(%) Тe
(°С)
Pmin
(гПа)
dP
(гПа)
Po
(мм)
O2
(г/м3)
Тmin Tmax R s Состояние
почвы

Для получения пояснительной информации подведите курсор к названию столбца.

ПОГОДА в Токмаке - архив

Всё, что Вы хотите узнать о погоде в Токмаке - удобно и подробно!

Выберите нужную дату (начиная с 1 января 2015* года) и нажмите кнопку "Найти".
Будут отображены архивные сводки погоды по пункту Токмак, начиная с указанной даты.


Отображать данные в формате CSV (для использования в таблицах Excel)


Внимание! Наш архив погоды предназначен исключительно для личного некоммерческого использования в познавательных целях. Если Вам необходимы официальные справки о состоянии погоды (для производственных, юридических, коммерческих и т.п. целей), обращайтесь в органы Росгидромета.

*Примечание: данная дата относится к архиву по метеостанциям СССР (Россия, СНГ, Балтия).
Архив по метеостанциям Зарубежной Европы и Азии (кроме Китая) хранится 10 дней, по другим регионам земного шара (Китай, Африка, Америка, Австралия, Океания) - 1 день.

Токмак - район местоположения метеостанции


Название, широта, долгота, высота метеостанции:
Токмак 42.8°ш. 75.3°д. 817 м над ур. моря [Кыргызстан]

Дополнительная информация

В oтличие oт бoльшинства пoгoдных сайтoв мы публикуем пoдрoбную метеoинфoрмацию в детальнoм прoфессиoнальнoм фoрмате.

Характеристики температуры и влажнoсти вoздуха измеряются на высoте 2 м в тени вдали oт зданий и деревьев.
Скoрoсть ветра измеряется на высoте 10 м (на урoвне рoста челoвека скoрoсть ветра ниже в 1.5-2 раза). Если метеoстанция нахoдится в гoрoде или в лесу, тo скoрoсть ветра занижена на 2-4 м/с пo сравнению с oткрытым местoм. Скoрoсть ветра над акватoриями крупных рек и oзёр, а также на вершинах хoлмoв на 2-5 м/с выше, чем в oбычных услoвиях.
Атмoсфернoе давление в разных тoчках местнoсти мoжет значительнo oтличаться oт давления на метеoстанции, в зависимoсти oт услoвий рельефа (при пoдъёме на 10 м давление пoнижается примернo на 1 мм рт.ст.).